Time,TemperatureF,DewpointF,PressureIn,WindDirection,WindDirectionDegrees,WindSpeedMPH,WindSpeedGustMPH,Humidity,HourlyPrecipIn,Conditions,Clouds,dailyrainin,SoftwareType,DateUTC
2013-03-12 00:02:00,19.0,16.0,29.98,SSW,210,1.0,2.0,86,0.00,,,0.00,,2013-03-12 05:02:00,
2013-03-12 00:12:00,19.0,16.0,29.98,SSW,210,1.0,2.0,86,0.00,,,0.00,,2013-03-12 05:12:00,
2013-03-12 00:22:00,18.0,15.0,29.98,SSW,210,0.0,0.0,88,0.00,,,0.00,,2013-03-12 05:22:00,
2013-03-12 00:32:00,17.0,14.0,29.99,SSW,210,0.0,0.0,89,0.00,,,0.00,,2013-03-12 05:32:00,
2013-03-12 00:42:00,17.0,14.0,29.99,SSW,210,0.0,0.0,89,0.00,,,0.00,,2013-03-12 05:42:00,
2013-03-12 00:52:00,17.0,15.0,29.99,SSW,210,0.0,0.0,90,0.00,,,0.00,,2013-03-12 05:52:00,
2013-03-12 01:02:00,17.0,15.0,29.99,SSW,210,0.0,0.0,91,0.00,,,0.00,,2013-03-12 06:02:00,
2013-03-12 01:12:00,17.0,15.0,29.99,SSW,210,0.0,0.0,91,0.00,,,0.00,,2013-03-12 06:12:00,
2013-03-12 01:22:00,17.0,15.0,30.00,SSW,210,0.0,2.0,91,0.00,,,0.00,,2013-03-12 06:22:00,
2013-03-12 01:32:00,15.0,12.0,30.00,SSW,210,0.0,0.0,88,0.00,,,0.00,,2013-03-12 06:32:00,
2013-03-12 01:42:00,15.0,12.0,30.00,SSW,210,0.0,0.0,88,0.00,,,0.00,,2013-03-12 06:42:00,
2013-03-12 01:52:00,14.0,12.0,30.00,SSW,210,0.0,0.0,91,0.00,,,0.00,,2013-03-12 06:52:00,
2013-03-12 02:02:00,16.0,15.0,30.01,SSW,210,1.0,2.0,94,0.00,,,0.00,,2013-03-12 07:02:00,
2013-03-12 02:12:00,16.0,15.0,30.01,SSW,210,1.0,2.0,94,0.00,,,0.00,,2013-03-12 07:12:00,
2013-03-12 02:22:00,17.0,16.0,30.02,SSW,210,0.0,1.0,94,0.00,,,0.00,,2013-03-12 07:22:00,
2013-03-12 02:32:00,17.0,15.0,30.03,SSW,210,0.0,0.0,93,0.00,,,0.00,,2013-03-12 07:32:00,
2013-03-12 02:42:00,17.0,15.0,30.03,SSW,210,0.0,0.0,93,0.00,,,0.00,,2013-03-12 07:42:00,
2013-03-12 02:52:00,14.0,12.0,30.03,SSW,210,0.0,0.0,91,0.00,,,0.00,,2013-03-12 07:52:00,
2013-03-12 03:02:00,14.0,12.0,30.03,SSW,210,0.0,1.0,92,0.00,,,0.00,,2013-03-12 08:02:00,
2013-03-12 03:12:00,14.0,12.0,30.03,SSW,210,0.0,1.0,92,0.00,,,0.00,,2013-03-12 08:12:00,
2013-03-12 03:22:00,15.0,13.0,30.03,SSW,210,0.0,2.0,93,0.00,,,0.00,,2013-03-12 08:22:00,
2013-03-12 03:32:00,14.0,12.0,30.03,SSW,210,0.0,0.0,92,0.00,,,0.00,,2013-03-12 08:32:00,
2013-03-12 03:42:00,14.0,12.0,30.03,SSW,210,0.0,0.0,92,0.00,,,0.00,,2013-03-12 08:42:00,
2013-03-12 03:52:00,14.0,12.0,30.03,SSW,210,0.0,0.0,93,0.00,,,0.00,,2013-03-12 08:52:00,
2013-03-12 04:03:00,15.0,13.0,30.03,SSW,210,0.0,0.0,93,0.00,,,0.00,,2013-03-12 09:03:00,
2013-03-12 04:12:00,15.0,13.0,30.03,SSW,210,0.0,0.0,93,0.00,,,0.00,,2013-03-12 09:12:00,
2013-03-12 04:22:00,15.0,14.0,30.03,SSW,210,0.0,2.0,94,0.00,,,0.00,,2013-03-12 09:22:00,
2013-03-12 04:32:00,16.0,15.0,30.02,SSW,210,0.0,2.0,94,0.00,,,0.00,,2013-03-12 09:32:00,
2013-03-12 04:42:00,16.0,15.0,30.02,SSW,210,0.0,2.0,94,0.00,,,0.00,,2013-03-12 09:42:00,
2013-03-12 04:52:00,16.0,14.0,30.02,SSW,210,1.0,2.0,93,0.00,,,0.00,,2013-03-12 09:52:00,
2013-03-12 05:02:00,18.0,17.0,30.01,SSW,210,0.0,2.0,94,0.00,,,0.00,,2013-03-12 10:02:00,
2013-03-12 05:12:00,18.0,17.0,30.01,SSW,210,0.0,2.0,94,0.00,,,0.00,,2013-03-12 10:12:00,
2013-03-12 05:22:00,16.0,14.0,30.01,SSW,210,0.0,0.0,90,0.00,,,0.00,,2013-03-12 10:22:00,
2013-03-12 05:32:00,14.0,12.0,30.01,SSW,210,0.0,0.0,91,0.00,,,0.00,,2013-03-12 10:32:00,
2013-03-12 05:42:00,14.0,12.0,30.01,SSW,210,0.0,0.0,91,0.00,,,0.00,,2013-03-12 10:42:00,
2013-03-12 05:52:00,14.0,12.0,30.02,SSW,210,2.0,2.0,93,0.00,,,0.00,,2013-03-12 10:52:00,
2013-03-12 06:02:00,14.0,12.0,30.03,SSW,210,1.0,2.0,93,0.00,,,0.00,,2013-03-12 11:02:00,
2013-03-12 06:12:00,14.0,12.0,30.03,SSW,210,1.0,2.0,93,0.00,,,0.00,,2013-03-12 11:12:00,
2013-03-12 06:22:00,15.0,13.0,30.03,WNW,289,2.0,3.0,93,0.00,,,0.00,,2013-03-12 11:22:00,
2013-03-12 06:32:00,26.0,25.0,30.03,NW,319,7.0,11.0,97,0.00,,,0.00,,2013-03-12 11:32:00,
2013-03-12 06:42:00,26.0,25.0,30.03,NW,319,7.0,11.0,97,0.00,,,0.00,,2013-03-12 11:42:00,
2013-03-12 06:52:00,28.0,25.0,30.04,West,274,5.0,10.0,90,0.00,,,0.00,,2013-03-12 11:52:00,
2013-03-12 07:02:00,28.0,25.0,30.04,NW,306,6.0,10.0,87,0.00,,,0.00,,2013-03-12 12:02:00,
2013-03-12 07:12:00,28.0,25.0,30.04,NW,306,6.0,10.0,87,0.00,,,0.00,,2013-03-12 12:12:00,
2013-03-12 07:22:00,28.0,24.0,30.05,WNW,283,4.0,8.0,86,0.00,,,0.00,,2013-03-12 12:22:00,
2013-03-12 07:32:00,28.0,24.0,30.05,WNW,299,6.0,9.0,85,0.00,,,0.00,,2013-03-12 12:32:00,
2013-03-12 07:42:00,28.0,24.0,30.05,WNW,299,6.0,9.0,85,0.00,,,0.00,,2013-03-12 12:42:00,
2013-03-12 07:52:00,28.0,24.0,30.06,WNW,287,6.0,10.0,84,0.00,,,0.00,,2013-03-12 12:52:00,
2013-03-12 08:02:00,31.0,26.0,30.06,NNW,330,11.0,19.0,80,0.00,,,0.00,,2013-03-12 13:02:00,
2013-03-12 08:12:00,31.0,26.0,30.06,NNW,330,11.0,19.0,80,0.00,,,0.00,,2013-03-12 13:12:00,
2013-03-12 08:22:00,31.0,24.0,30.06,NW,306,8.0,19.0,76,0.00,,,0.00,,2013-03-12 13:22:00,
2013-03-12 08:32:00,30.0,24.0,30.07,West,281,12.0,22.0,77,0.00,,,0.00,,2013-03-12 13:32:00,
2013-03-12 08:42:00,30.0,24.0,30.07,West,281,12.0,22.0,77,0.00,,,0.00,,2013-03-12 13:42:00,
2013-03-12 08:52:00,30.0,23.0,30.08,NW,312,8.0,17.0,76,0.00,,,0.00,,2013-03-12 13:52:00,
2013-03-12 09:02:00,31.0,24.0,30.08,NW,309,12.0,20.0,75,0.00,,,0.00,,2013-03-12 14:02:00,
2013-03-12 09:12:00,31.0,24.0,30.08,NW,309,12.0,20.0,75,0.00,,,0.00,,2013-03-12 14:12:00,
2013-03-12 09:22:00,31.0,24.0,30.09,West,271,7.0,16.0,74,0.00,,,0.00,,2013-03-12 14:22:00,
2013-03-12 09:32:00,31.0,24.0,30.09,NW,313,9.0,16.0,75,0.00,,,0.00,,2013-03-12 14:32:00,
2013-03-12 09:42:00,31.0,24.0,30.09,NW,313,9.0,16.0,75,0.00,,,0.00,,2013-03-12 14:42:00,
2013-03-12 09:53:00,32.0,24.0,30.10,WNW,302,15.0,20.0,73,0.00,,,0.00,,2013-03-12 14:53:00,
2013-03-12 10:02:00,32.0,24.0,30.11,NW,311,12.0,18.0,73,0.00,,,0.00,,2013-03-12 15:02:00,
2013-03-12 10:12:00,32.0,24.0,30.11,NW,311,12.0,18.0,73,0.00,,,0.00,,2013-03-12 15:12:00,
2013-03-12 10:22:00,33.0,25.0,30.11,WNW,302,10.0,15.0,72,0.00,,,0.00,,2013-03-12 15:22:00,
2013-03-12 10:32:00,33.0,25.0,30.11,WNW,293,10.0,18.0,73,0.00,,,0.00,,2013-03-12 15:32:00,
2013-03-12 10:42:00,33.0,25.0,30.11,WNW,293,10.0,18.0,73,0.00,,,0.00,,2013-03-12 15:42:00,
2013-03-12 10:53:00,33.0,25.0,30.15,NW,311,9.0,16.0,73,0.00,,,0.00,,2013-03-12 15:53:00,
2013-03-12 11:02:00,33.0,26.0,30.16,WNW,299,9.0,17.0,74,0.00,,,0.00,,2013-03-12 16:02:00,
2013-03-12 11:12:00,33.0,26.0,30.16,WNW,299,9.0,17.0,74,0.00,,,0.00,,2013-03-12 16:12:00,
2013-03-12 11:22:00,33.0,26.0,30.16,WNW,284,10.0,16.0,74,0.00,,,0.00,,2013-03-12 16:22:00,
2013-03-12 11:32:00,33.0,25.0,30.17,WNW,302,11.0,22.0,73,0.00,,,0.00,,2013-03-12 16:32:00,
2013-03-12 11:42:00,33.0,25.0,30.17,WNW,302,11.0,22.0,73,0.00,,,0.00,,2013-03-12 16:42:00,
2013-03-12 11:53:00,33.0,25.0,30.18,WNW,292,16.0,22.0,73,0.00,,,0.00,,2013-03-12 16:53:00,
2013-03-12 12:02:00,33.0,25.0,30.18,WNW,299,10.0,27.0,71,0.00,,,0.00,,2013-03-12 17:02:00,
2013-03-12 12:12:00,33.0,25.0,30.18,WNW,299,10.0,27.0,71,0.00,,,0.00,,2013-03-12 17:12:00,
2013-03-12 12:22:00,33.0,24.0,30.19,NNW,345,11.0,22.0,70,0.00,,,0.00,,2013-03-12 17:22:00,
2013-03-12 12:33:00,33.0,25.0,30.19,North,5,9.0,16.0,72,0.00,,,0.00,,2013-03-12 17:33:00,
2013-03-12 12:43:00,33.0,25.0,30.19,North,5,9.0,16.0,72,0.00,,,0.00,,2013-03-12 17:43:00,
2013-03-12 12:53:00,33.0,25.0,30.19,NW,319,9.0,16.0,72,0.00,,,0.00,,2013-03-12 17:53:00,
2013-03-12 13:02:00,33.0,25.0,30.20,WNW,286,14.0,24.0,72,0.00,,,0.00,,2013-03-12 18:02:00,
2013-03-12 13:12:00,33.0,25.0,30.20,NNW,348,10.0,21.0,71,0.00,,,0.00,,2013-03-12 18:12:00,
2013-03-12 13:23:00,33.0,25.0,30.20,NNW,348,10.0,21.0,71,0.00,,,0.00,,2013-03-12 18:23:00,
2013-03-12 13:33:00,33.0,25.0,30.21,NNW,336,14.0,23.0,71,0.00,,,0.00,,2013-03-12 18:33:00,
2013-03-12 13:42:00,33.0,25.0,30.21,NNW,336,14.0,23.0,71,0.00,,,0.00,,2013-03-12 18:42:00,
2013-03-12 13:53:00,33.0,25.0,30.21,NW,321,12.0,24.0,71,0.00,,,0.00,,2013-03-12 18:53:00,
2013-03-12 14:03:00,33.0,25.0,30.21,NW,321,11.0,19.0,71,0.00,,,0.00,,2013-03-12 19:03:00,
2013-03-12 14:13:00,33.0,25.0,30.21,NW,321,11.0,19.0,71,0.00,,,0.00,,2013-03-12 19:13:00,
2013-03-12 14:22:00,33.0,25.0,30.22,NW,306,12.0,21.0,71,0.00,,,0.00,,2013-03-12 19:22:00,
2013-03-12 14:33:00,33.0,24.0,30.22,WNW,290,11.0,19.0,70,0.00,,,0.00,,2013-03-12 19:33:00,
2013-03-12 14:43:00,33.0,24.0,30.22,WNW,290,11.0,19.0,70,0.00,,,0.00,,2013-03-12 19:43:00,
2013-03-12 14:53:00,33.0,25.0,30.22,NNW,333,12.0,21.0,71,0.00,,,0.00,,2013-03-12 19:53:00,
2013-03-12 15:02:00,32.0,24.0,30.22,NW,321,11.0,21.0,71,0.00,,,0.00,,2013-03-12 20:02:00,
2013-03-12 15:12:00,32.0,24.0,30.22,NW,321,11.0,21.0,71,0.00,,,0.00,,2013-03-12 20:12:00,
2013-03-12 15:22:00,33.0,25.0,30.22,NW,313,9.0,24.0,71,0.00,,,0.00,,2013-03-12 20:22:00,
2013-03-12 15:32:00,33.0,25.0,30.22,NNW,329,8.0,22.0,71,0.00,,,0.00,,2013-03-12 20:32:00,
2013-03-12 15:42:00,33.0,25.0,30.22,NNW,329,8.0,22.0,71,0.00,,,0.00,,2013-03-12 20:42:00,
2013-03-12 15:53:00,33.0,24.0,30.22,NNW,346,10.0,19.0,70,0.00,,,0.00,,2013-03-12 20:53:00,
2013-03-12 16:02:00,33.0,25.0,30.23,NW,317,6.0,16.0,71,0.00,,,0.00,,2013-03-12 21:02:00,
2013-03-12 16:12:00,33.0,25.0,30.23,NW,317,6.0,16.0,71,0.00,,,0.00,,2013-03-12 21:12:00,
2013-03-12 16:22:00,32.0,24.0,30.23,NW,323,10.0,17.0,73,0.00,,,0.00,,2013-03-12 21:22:00,
2013-03-12 16:32:00,32.0,25.0,30.24,NW,317,7.0,16.0,74,0.00,,,0.00,,2013-03-12 21:32:00,
2013-03-12 16:43:00,32.0,25.0,30.24,NW,317,7.0,16.0,74,0.00,,,0.00,,2013-03-12 21:43:00,
2013-03-12 16:52:00,32.0,24.0,30.24,NW,321,9.0,19.0,71,0.00,,,0.00,,2013-03-12 21:52:00,
2013-03-12 17:02:00,32.0,24.0,30.24,NNW,335,12.0,19.0,72,0.00,,,0.00,,2013-03-12 22:02:00,
2013-03-12 17:12:00,32.0,24.0,30.24,NNW,335,12.0,19.0,72,0.00,,,0.00,,2013-03-12 22:12:00,
2013-03-12 17:22:00,32.0,25.0,30.24,NW,318,8.0,18.0,74,0.00,,,0.00,,2013-03-12 22:22:00,
2013-03-12 17:33:00,32.0,24.0,30.24,North,355,9.0,19.0,72,0.00,,,0.00,,2013-03-12 22:33:00,
2013-03-12 17:42:00,32.0,24.0,30.24,North,355,9.0,19.0,72,0.00,,,0.00,,2013-03-12 22:42:00,
2013-03-12 17:52:00,31.0,23.0,30.26,NW,311,14.0,23.0,72,0.00,,,0.00,,2013-03-12 22:52:00,
2013-03-12 18:02:00,31.0,23.0,30.26,NNW,336,10.0,15.0,73,0.00,,,0.00,,2013-03-12 23:02:00,
2013-03-12 18:12:00,31.0,23.0,30.26,NNW,336,10.0,15.0,73,0.00,,,0.00,,2013-03-12 23:12:00,
2013-03-12 18:22:00,31.0,23.0,30.26,WNW,300,8.0,21.0,71,0.00,,,0.00,,2013-03-12 23:22:00,
2013-03-12 18:34:00,31.0,23.0,30.26,NW,309,8.0,17.0,71,0.00,,,0.00,,2013-03-12 23:34:00,
2013-03-12 18:43:00,31.0,23.0,30.26,NW,309,8.0,17.0,71,0.00,,,0.00,,2013-03-12 23:43:00,
2013-03-12 18:52:00,31.0,23.0,30.26,NW,325,10.0,18.0,71,0.00,,,0.00,,2013-03-12 23:52:00,
2013-03-12 19:02:00,31.0,23.0,30.26,WNW,282,7.0,17.0,72,0.00,,,0.00,,2013-03-13 00:02:00,
2013-03-12 19:12:00,31.0,23.0,30.26,WNW,282,7.0,17.0,72,0.00,,,0.00,,2013-03-13 00:12:00,
2013-03-12 19:23:00,30.0,21.0,30.26,WNW,301,13.0,22.0,69,0.00,,,0.00,,2013-03-13 00:23:00,
2013-03-12 19:33:00,30.0,22.0,30.27,NW,323,7.0,15.0,71,0.00,,,0.00,,2013-03-13 00:33:00,
2013-03-12 19:42:00,30.0,22.0,30.27,NW,323,7.0,15.0,71,0.00,,,0.00,,2013-03-13 00:42:00,
2013-03-12 19:53:00,30.0,22.0,30.27,NNW,336,6.0,15.0,72,0.00,,,0.00,,2013-03-13 00:53:00,
2013-03-12 20:02:00,30.0,23.0,30.28,NNW,333,5.0,14.0,74,0.00,,,0.00,,2013-03-13 01:02:00,
2013-03-12 20:12:00,30.0,23.0,30.28,NNW,333,5.0,14.0,74,0.00,,,0.00,,2013-03-13 01:12:00,
2013-03-12 20:22:00,30.0,23.0,30.28,NNW,348,8.0,13.0,75,0.00,,,0.00,,2013-03-13 01:22:00,
2013-03-12 20:32:00,30.0,23.0,30.29,NNW,344,6.0,12.0,76,0.00,,,0.00,,2013-03-13 01:32:00,
2013-03-12 20:42:00,30.0,23.0,30.29,NNW,344,6.0,12.0,76,0.00,,,0.00,,2013-03-13 01:42:00,
2013-03-12 20:53:00,29.0,23.0,30.29,NW,308,7.0,12.0,77,0.00,,,0.00,,2013-03-13 01:53:00,
2013-03-12 21:02:00,29.0,23.0,30.29,NNW,338,5.0,10.0,77,0.00,,,0.00,,2013-03-13 02:02:00,
2013-03-12 21:12:00,29.0,23.0,30.29,NNW,338,5.0,10.0,77,0.00,,,0.00,,2013-03-13 02:12:00,
2013-03-12 21:22:00,29.0,23.0,30.29,NW,317,9.0,12.0,77,0.00,,,0.00,,2013-03-13 02:22:00,
2013-03-12 21:32:00,29.0,23.0,30.29,NW,317,5.0,10.0,77,0.00,,,0.00,,2013-03-13 02:32:00,
2013-03-12 21:42:00,29.0,23.0,30.29,NW,317,5.0,10.0,77,0.00,,,0.00,,2013-03-13 02:42:00,
2013-03-12 21:52:00,29.0,23.0,30.30,North,355,5.0,11.0,78,0.00,,,0.00,,2013-03-13 02:52:00,
2013-03-12 22:02:00,28.0,22.0,30.30,NNW,332,4.0,12.0,78,0.00,,,0.00,,2013-03-13 03:02:00,
2013-03-12 22:12:00,28.0,22.0,30.30,NNW,332,4.0,12.0,78,0.00,,,0.00,,2013-03-13 03:12:00,
2013-03-12 22:22:00,28.0,22.0,30.30,NW,313,4.0,13.0,78,0.00,,,0.00,,2013-03-13 03:22:00,
2013-03-12 22:32:00,27.0,21.0,30.31,North,350,4.0,8.0,79,0.00,,,0.00,,2013-03-13 03:32:00,
2013-03-12 22:42:00,27.0,21.0,30.31,North,350,4.0,8.0,79,0.00,,,0.00,,2013-03-13 03:42:00,
2013-03-12 22:53:00,27.0,22.0,30.31,North,351,4.0,8.0,80,0.00,,,0.00,,2013-03-13 03:53:00,
2013-03-12 23:02:00,27.0,22.0,30.32,NNW,333,5.0,8.0,81,0.00,,,0.00,,2013-03-13 04:02:00,
2013-03-12 23:13:00,27.0,22.0,30.32,NNW,333,5.0,8.0,81,0.00,,,0.00,,2013-03-13 04:13:00,
2013-03-12 23:22:00,26.0,21.0,30.32,NW,326,5.0,7.0,82,0.00,,,0.00,,2013-03-13 04:22:00,
2013-03-12 23:32:00,26.0,21.0,30.32,North,355,4.0,8.0,81,0.00,,,0.00,,2013-03-13 04:32:00,
2013-03-12 23:42:00,26.0,21.0,30.32,North,355,4.0,8.0,81,0.00,,,0.00,,2013-03-13 04:42:00,
2013-03-12 23:53:00,26.0,21.0,30.32,NNW,333,4.0,8.0,81,0.00,,,0.00,,2013-03-13 04:53:00,